KD4UFD Weather Reports


time (UTC)temp
F
wind
direction
speed
knots
gust
knots
rain 1hr
in
rain 24hr
in
rain mn
in
humidity
%
barometer
mb
20260504015849 52 279 0.0 0.0 0.00 0.00 0.00 71 1016.0
20260504015346 52 279 0.0 0.0 0.00 0.00 0.00 70 1016.1
20260504014842 52 279 0.0 0.0 0.00 0.00 0.00 69 1015.9
20260504014338 53 279 0.0 0.0 0.00 0.00 0.00 69 1015.9
20260504013836 53 279 0.0 0.0 0.00 0.00 0.00 69 1015.8
20260504013334 53 279 0.0 0.0 0.00 0.00 0.00 69 1015.9
20260504012830 53 279 0.0 0.0 0.00 0.00 0.00 68 1015.9
20260504012328 53 279 0.0 0.0 0.00 0.00 0.00 67 1015.6
20260504011825 54 278 0.0 0.0 0.00 0.00 0.00 67 1015.8
20260504011322 54 279 0.0 0.0 0.00 0.00 0.00 66 1015.9
20260504010817 54 279 0.0 0.0 0.00 0.00 0.00 65 1015.8
20260504010313 55 279 0.0 0.0 0.00 0.00 0.00 64 1016.0
20260504005810 56 279 0.0 0.0 0.00 0.00 0.00 64 1015.9
20260504005307 56 279 0.0 0.0 0.00 0.00 0.00 63 1016.1
20260504004805 57 271 0.0 0.0 0.00 0.00 0.00 61 1016.0
20260504004302 57 256 0.0 0.0 0.00 0.00 0.00 60 1015.9
20260504003758 58 256 0.0 0.0 0.00 0.00 0.00 59 1015.5
20260504003255 58 257 0.0 0.9 0.00 0.00 0.00 57 1015.6
20260504002752 59 244 0.0 0.0 0.00 0.00 0.00 55 1015.6
20260504002249 59 198 0.0 0.0 0.00 0.00 0.00 54 1015.6
20260504001746 60 198 0.0 0.0 0.00 0.00 0.00 53 1015.7
20260504001243 61 197 0.0 0.0 0.00 0.00 0.00 53 1015.7
20260504000740 61 215 0.0 0.0 0.00 0.00 0.00 52 1015.6
20260504000237 62 239 0.9 0.9 0.00 0.00 0.00 50 1015.6
20260503235735 62 210 0.0 0.0 0.00 0.00 0.00 50 1015.7
20260503235232 63 209 0.0 0.0 0.00 0.00 0.00 49 1015.9
20260503234730 63 220 0.9 0.9 0.00 0.00 0.00 49 1015.6
20260503234228 63 193 0.0 0.0 0.00 0.00 0.00 49 1015.8
20260503233725 63 228 0.9 0.9 0.00 0.00 0.00 48 1015.9
20260503233220 63 213 0.9 0.9 0.00 0.00 0.00 49 1015.8
20260503232717 64 223 0.9 0.9 0.00 0.00 0.00 46 1015.8
20260503232214 65 222 0.9 0.9 0.00 0.00 0.00 46 1015.8
20260503231713 65 284 0.9 0.9 0.00 0.00 0.00 45 1015.7
20260503231209 66 216 0.9 0.9 0.00 0.00 0.00 45 1016.2
20260503230705 66 226 0.9 0.9 0.00 0.00 0.00 43 1015.9
20260503230203 67 216 0.9 0.9 0.00 0.00 0.00 43 1016.2
20260503225700 66 228 0.0 0.0 0.00 0.00 0.00 44 1016.2
20260503225200 66 237 0.0 0.9 0.00 0.00 0.00 45 1016.1
20260503224658 66 226 0.9 0.9 0.00 0.00 0.00 44 1016.2
20260503224155 67 222 0.9 0.9 0.00 0.00 0.00 43 1016.2
20260503223653 66 242 0.9 0.9 0.00 0.00 0.00 42 1016.2
20260503223149 66 73 0.9 0.9 0.00 0.00 0.00 44 1016.4
20260503222646 66 212 1.7 1.7 0.00 0.00 0.00 43 1016.3
20260503222144 67 240 2.6 2.6 0.00 0.00 0.00 43 1016.4
20260503221642 67 340 0.9 1.7 0.00 0.00 0.00 43 1016.4
20260503221139 66 217 1.7 1.7 0.00 0.00 0.00 43 1016.6
20260503220636 67 345 0.9 2.6 0.00 0.00 0.00 44 1016.6
20260503220132 66 223 1.7 1.7 0.00 0.00 0.00 45 1016.7
20260503215630 66 224 0.9 0.9 0.00 0.00 0.00 46 1016.5
20260503215126 67 243 2.6 4.3 0.00 0.00 0.00 43 1016.6
20260503214625 66 220 2.6 2.6 0.00 0.00 0.00 44 1017.0
20260503214120 68 224 2.6 2.6 0.00 0.00 0.00 45 1016.9
20260503213614 67 206 0.9 0.9 0.00 0.00 0.00 42 1016.9
20260503213110 66 235 2.6 2.6 0.00 0.00 0.00 45 1016.9
20260503212608 67 242 3.5 4.3 0.00 0.00 0.00 42 1017.0
20260503212105 66 214 0.0 0.0 0.00 0.00 0.00 44 1017.0
20260503211603 66 336 4.3 7.0 0.00 0.00 0.00 41 1017.1
20260503211057 66 98 3.5 5.2 0.00 0.00 0.00 41 1017.2
20260503210555 66 224 0.9 0.9 0.00 0.00 0.00 43 1017.3
20260503210050 66 173 4.3 5.2 0.00 0.00 0.00 41 1017.3
20260503205547 66 303 1.7 1.7 0.00 0.00 0.00 40 1017.2
20260503205043 65 224 0.0 0.9 0.00 0.00 0.00 42 1017.3
20260503204541 65 188 5.2 7.0 0.00 0.00 0.00 39 1017.6
20260503204038 66 259 2.6 2.6 0.00 0.00 0.00 39 1017.8
20260503203535 65 226 4.3 6.1 0.00 0.00 0.00 39 1017.4
20260503203032 66 279 0.9 0.9 0.00 0.00 0.00 40 1017.7
20260503202530 65 218 0.9 1.7 0.00 0.00 0.00 42 1017.7
20260503202027 65 185 2.6 4.3 0.00 0.00 0.00 43 1017.8
20260503201526 66 129 2.6 4.3 0.00 0.00 0.00 41 1018.0
20260503201022 66 204 0.9 0.9 0.00 0.00 0.00 48 1018.2
20260503200519 67 196 2.6 4.3 0.00 0.00 0.00 44 1018.0
20260503200015 66 221 1.7 1.7 0.00 0.00 0.00 44 1018.3
20260503195513 65 207 0.9 0.9 0.00 0.00 0.00 43 1018.5
20260503195009 65 272 2.6 4.3 0.00 0.00 0.00 44 1018.5
20260503194507 64 219 2.6 4.3 0.00 0.00 0.00 47 1018.5
20260503194006 64 252 2.6 2.6 0.00 0.00 0.00 42 1018.4
20260503193503 64 186 3.5 4.3 0.00 0.00 0.00 41 1018.5
20260503192958 63 220 0.9 0.9 0.00 0.00 0.00 44 1018.6
20260503192455 63 202 2.6 2.6 0.00 0.00 0.00 42 1018.7
20260503191950 63 212 1.7 2.6 0.00 0.00 0.00 44 1018.7
20260503191448 64 185 4.3 6.1 0.00 0.00 0.00 42 1019.0
20260503190944 64 227 4.3 6.1 0.00 0.00 0.00 43 1018.9
20260503190442 63 150 0.9 1.7 0.00 0.00 0.00 47 1018.8
20260503185939 63 193 2.6 2.6 0.00 0.00 0.00 45 1018.9
20260503185435 62 161 0.9 1.7 0.00 0.00 0.00 51 1018.9
20260503184934 62 230 0.0 0.9 0.00 0.00 0.00 42 1019.1
20260503184431 63 352 2.6 4.3 0.00 0.00 0.00 43 1019.3
20260503183927 63 227 2.6 2.6 0.00 0.00 0.00 44 1019.2
20260503183424 62 214 4.3 5.2 0.00 0.00 0.00 43 1019.2
20260503182921 63 355 4.3 5.2 0.00 0.00 0.00 43 1019.2
20260503182420 63 222 0.9 0.9 0.00 0.00 0.00 50 1019.6
20260503181917 63 315 3.5 5.2 0.00 0.00 0.00 39 1019.5
20260503181414 62 299 2.6 2.6 0.00 0.00 0.00 45 1019.6
20260503180910 61 208 2.6 2.6 0.00 0.00 0.00 41 1019.4
20260503180409 61 191 1.7 1.7 0.00 0.00 0.00 44 1019.7
20260503175904 62 214 2.6 4.3 0.00 0.00 0.00 47 1019.6
20260503175403 62 321 1.7 1.7 0.00 0.00 0.00 43 1019.6
20260503174858 60 301 1.7 1.7 0.00 0.00 0.00 48 1020.0
20260503174356 60 162 2.6 4.3 0.00 0.00 0.00 50 1019.9
20260503173851 60 211 4.3 5.2 0.00 0.00 0.00 43 1019.8
20260503173348 61 206 0.9 1.7 0.00 0.00 0.00 47 1019.9
20260503172844 60 316 0.9 0.9 0.00 0.00 0.00 44 1020.3
20260503172342 61 228 3.5 4.3 0.00 0.00 0.00 42 1020.2
20260503171838 60 328 0.9 2.6 0.00 0.00 0.00 44 1020.2
20260503171335 61 14 2.6 4.3 0.00 0.00 0.00 44 1020.3
20260503170832 60 220 2.6 2.6 0.00 0.00 0.00 49 1020.4
20260503170329 60 214 3.5 4.3 0.00 0.00 0.00 47 1020.4
20260503150721 56 117 6.1 7.0 0.00 0.00 0.00 53 1021.3
20260503150217 56 156 0.9 0.9 0.00 0.00 0.00 48 1021.5
20260503140141 55 129 3.5 4.3 0.00 0.00 0.00 50 1021.3
20260503131111 52 123 1.7 1.7 0.00 0.00 0.00 68 1021.6
20260503130609 52 39 0.9 0.9 0.00 0.00 0.00 67 1021.3
20260503130107 52 134 0.9 1.7 0.00 0.00 0.00 69 1021.4
20260503110459 37 243 0.0 0.0 0.00 0.00 0.00 94 1020.0
20260503090350 40 243 0.0 0.0 0.00 0.00 0.00 89 1019.3
20260503081317 43 243 0.0 0.0 0.00 0.00 0.00 82 1018.7
20260503080814 43 243 0.0 0.0 0.00 0.00 0.00 82 1018.9
20260503080311 43 242 0.0 0.0 0.00 0.00 0.00 81 1018.8
20260503072748 46 205 0.0 0.0 0.00 0.00 0.00 76 1018.2
20260503072244 46 6 0.0 0.0 0.00 0.00 0.00 76 1018.2
20260503071741 46 337 0.0 0.0 0.00 0.00 0.00 76 1018.1
20260503071238 46 357 0.0 0.0 0.00 0.00 0.00 76 1018.0
20260503070734 46 275 0.0 0.0 0.00 0.00 0.00 77 1018.0
20260503070232 46 270 0.0 0.9 0.00 0.00 0.00 77 1018.3
20260503060151 47 219 0.0 0.0 0.00 0.00 0.00 76 1018.0
20260503054638 49 135 0.0 0.9 0.00 0.00 0.00 73 1018.0
20260503054136 49 32 0.0 0.0 0.00 0.00 0.00 72 1017.9
20260503053633 49 86 0.0 0.0 0.00 0.00 0.00 72 1017.8
20260503053132 50 8 0.0 0.0 0.00 0.00 0.00 71 1017.8
20260503052628 50 302 0.0 0.0 0.00 0.00 0.00 71 1017.8
20260503052124 50 331 0.9 0.9 0.00 0.00 0.00 71 1017.8
20260503051620 50 332 0.0 0.9 0.00 0.00 0.00 70 1018.0
20260503051118 50 39 0.9 1.7 0.00 0.00 0.00 70 1017.7
20260503050614 50 207 0.9 0.9 0.00 0.00 0.00 70 1017.7
20260503050111 50 313 0.0 0.0 0.00 0.00 0.00 71 1017.9
20260503045608 50 298 0.0 0.0 0.00 0.00 0.00 72 1017.7
20260503045105 50 280 0.9 0.9 0.00 0.00 0.00 72 1017.9
20260503044602 49 265 0.0 0.0 0.00 0.00 0.00 72 1017.6
20260503044100 49 310 0.0 0.9 0.00 0.00 0.00 72 1017.9
20260503043555 49 113 0.9 0.9 0.00 0.00 0.00 72 1017.7
20260503043052 49 284 0.0 0.0 0.00 0.00 0.00 72 1017.6
20260503042549 49 241 0.0 0.9 0.00 0.00 0.00 72 1017.8
20260503042045 50 308 0.0 0.9 0.00 0.00 0.00 71 1017.6
20260503041543 50 277 0.0 0.0 0.00 0.00 0.00 70 1017.5
20260503041040 50 308 0.0 0.9 0.00 0.00 0.00 70 1017.6
20260503040537 50 252 0.0 0.0 0.00 0.00 0.00 70 1017.7
20260503040034 51 328 0.0 0.9 0.00 0.00 0.00 69 1017.4
20260503035531 51 15 3.5 5.2 0.00 0.00 0.00 69 1017.4
20260503035029 51 50 1.7 1.7 0.00 0.00 0.00 68 1017.4
20260503034526 51 8 0.9 1.7 0.00 0.00 0.00 68 1017.5
20260503034023 52 69 1.7 2.6 0.00 0.00 0.00 67 1017.6
20260503033520 52 67 0.9 0.9 0.00 0.00 0.00 67 1017.5
20260503033018 52 16 0.9 0.9 0.00 0.00 0.00 67 1017.6
20260503032516 52 343 0.9 0.9 0.00 0.00 0.00 67 1017.3
20260503032014 52 238 0.9 0.9 0.00 0.00 0.00 66 1017.5
20260503031511 52 284 0.9 0.9 0.00 0.00 0.00 66 1017.4
20260503031008 52 69 0.9 1.7 0.00 0.00 0.00 66 1017.6
20260503030504 52 356 0.9 1.7 0.00 0.00 0.00 66 1017.4
20260503030002 52 303 2.6 4.3 0.00 0.00 0.00 66 1017.4
20260503025458 52 1 0.9 0.9 0.00 0.00 0.00 66 1017.4
20260503024956 52 301 1.7 1.7 0.00 0.00 0.00 66 1017.3
20260503024452 52 65 0.9 1.7 0.00 0.00 0.00 67 1017.3
20260503023949 52 24 0.9 1.7 0.00 0.00 0.00 66 1017.1
20260503023446 52 297 0.0 0.0 0.00 0.00 0.00 66 1017.1
20260503022943 52 62 1.7 1.7 0.00 0.00 0.00 67 1017.0
20260503022438 52 278 0.0 0.0 0.00 0.00 0.00 66 1017.2
20260503021934 52 49 0.0 0.0 0.00 0.00 0.00 67 1017.1
20260503021430 52 48 0.0 0.0 0.00 0.00 0.00 67 1016.9
20260503020928 52 53 0.0 0.0 0.00 0.00 0.00 67 1017.0
20260503020426 52 338 0.0 0.0 0.00 0.00 0.00 67 1016.9